Location: Lecco
(45.8566°N, 9.3977°E)
Time: 09:36:21
(UTC+02:00)

S-56A Canister/Altair - Pass Details

Date: 29 July 2019
Orbit: 633 x 2499 km, 38.9° (Epoch: 18 August)

Event Time Altitude Azimuth Distance (km) Brightness Sun altitude
Rises 07:30:20 0° 253° (WSW) 4,532 10.8 13.6°
Reaches altitude 10° 07:33:00 10° 250° (WSW) 3,775 10.5 14.1°
Maximum altitude 07:43:10 62° 173° (S) 2,239 10.1 15.8°
Drops below altitude 10° 07:57:14 10° 98° (E) 5,089 13.5 18.2°
Sets 08:01:27 0° 96° (E) 6,165 13.6 18.9°
